Time,TemperatureF,DewpointF,PressureIn,WindDirection,WindDirectionDegrees,WindSpeedMPH,WindSpeedGustMPH,Humidity,HourlyPrecipIn,Conditions,Clouds,dailyrainin,SoftwareType,DateUTC
2017-07-26 00:11:00,64.2,64.0,30.20,East,101,0.0,0.0,98,0.00,,,0.00,weatherlink.com 1.10,2017-07-26 04:11:00,
2017-07-26 00:26:00,64.2,64.0,30.20,East,101,0.0,0.0,98,0.00,,,0.00,weatherlink.com 1.10,2017-07-26 04:26:00,
2017-07-26 00:41:00,64.3,64.0,30.20,East,101,0.0,1.0,98,0.00,,,0.00,weatherlink.com 1.10,2017-07-26 04:41:00,
2017-07-26 00:56:00,64.4,64.0,30.20,East,101,0.0,1.0,98,0.00,,,0.00,weatherlink.com 1.10,2017-07-26 04:56:00,
2017-07-26 01:11:00,64.5,64.0,30.20,ESE,102,0.0,0.0,98,0.00,,,0.00,weatherlink.com 1.10,2017-07-26 05:11:00,
2017-07-26 01:26:00,64.5,64.0,30.20,ESE,102,0.0,1.0,98,0.00,,,0.00,weatherlink.com 1.10,2017-07-26 05:26:00,
2017-07-26 01:41:00,64.6,64.0,30.21,ESE,102,0.0,1.0,98,0.00,,,0.00,weatherlink.com 1.10,2017-07-26 05:41:00,
2017-07-26 01:56:00,64.7,64.0,30.20,ESE,102,0.0,1.0,98,0.00,,,0.00,weatherlink.com 1.10,2017-07-26 05:56:00,
2017-07-26 02:11:00,64.7,64.0,30.20,ESE,102,0.0,0.0,99,0.00,,,0.00,weatherlink.com 1.10,2017-07-26 06:11:00,
2017-07-26 02:26:00,64.8,65.0,30.20,ESE,102,0.0,1.0,99,0.00,,,0.00,weatherlink.com 1.10,2017-07-26 06:26:00,
2017-07-26 02:41:00,64.7,64.0,30.20,NNE,25,1.0,2.0,99,0.00,,,0.00,weatherlink.com 1.10,2017-07-26 06:41:00,
2017-07-26 02:56:00,64.8,65.0,30.20,NNE,25,0.0,1.0,99,0.00,,,0.00,weatherlink.com 1.10,2017-07-26 06:56:00,
2017-07-26 03:11:00,64.8,65.0,30.20,NNE,25,0.0,0.0,99,0.00,,,0.00,weatherlink.com 1.10,2017-07-26 07:11:00,
2017-07-26 03:26:00,64.8,65.0,30.19,NNE,25,0.0,1.0,99,0.00,,,0.00,weatherlink.com 1.10,2017-07-26 07:26:00,
2017-07-26 03:41:00,64.7,64.0,30.19,NNE,25,0.0,1.0,98,0.00,,,0.00,weatherlink.com 1.10,2017-07-26 07:41:00,
2017-07-26 03:56:00,64.7,64.0,30.18,NNE,27,1.0,1.0,98,0.00,,,0.00,weatherlink.com 1.10,2017-07-26 07:56:00,
2017-07-26 04:11:00,64.7,64.0,30.18,NNE,27,0.0,1.0,99,0.00,,,0.00,weatherlink.com 1.10,2017-07-26 08:11:00,
2017-07-26 04:26:00,64.6,64.0,30.19,NNE,27,0.0,1.0,98,0.00,,,0.00,weatherlink.com 1.10,2017-07-26 08:26:00,
2017-07-26 04:41:00,64.6,64.0,30.19,NNE,27,1.0,1.0,98,0.00,,,0.00,weatherlink.com 1.10,2017-07-26 08:41:00,
2017-07-26 04:56:00,64.6,64.0,30.19,ENE,78,0.0,3.0,98,0.00,,,0.00,weatherlink.com 1.10,2017-07-26 08:56:00,
2017-07-26 05:11:00,64.2,64.0,30.20,North,7,1.0,3.0,98,0.00,,,0.00,weatherlink.com 1.10,2017-07-26 09:11:00,
2017-07-26 05:26:00,64.0,64.0,30.20,NNW,331,0.0,1.0,98,0.00,,,0.00,weatherlink.com 1.10,2017-07-26 09:26:00,
2017-07-26 05:41:00,63.9,63.0,30.21,ENE,71,0.0,2.0,98,0.00,,,0.00,weatherlink.com 1.10,2017-07-26 09:41:00,
2017-07-26 05:56:00,63.8,63.0,30.21,ENE,65,0.0,2.0,98,0.00,,,0.00,weatherlink.com 1.10,2017-07-26 09:56:00,
2017-07-26 06:11:00,63.8,63.0,30.21,ENE,65,1.0,1.0,98,0.00,,,0.00,weatherlink.com 1.10,2017-07-26 10:11:00,
2017-07-26 06:26:00,63.8,63.0,30.21,NE,47,1.0,2.0,97,0.00,,,0.00,weatherlink.com 1.10,2017-07-26 10:26:00,
2017-07-26 06:41:00,63.7,63.0,30.22,NE,48,0.0,2.0,97,0.00,,,0.00,weatherlink.com 1.10,2017-07-26 10:41:00,
2017-07-26 06:56:00,63.7,63.0,30.22,ENE,73,1.0,4.0,96,0.00,,,0.00,weatherlink.com 1.10,2017-07-26 10:56:00,
2017-07-26 07:11:00,63.9,63.0,30.22,East,90,0.0,2.0,96,0.00,,,0.00,weatherlink.com 1.10,2017-07-26 11:11:00,
2017-07-26 07:26:00,64.2,63.0,30.22,East,93,3.0,4.0,95,0.00,,,0.00,weatherlink.com 1.10,2017-07-26 11:26:00,
2017-07-26 07:41:00,64.8,63.0,30.22,ENE,63,2.0,4.0,95,0.00,,,0.00,weatherlink.com 1.10,2017-07-26 11:41:00,
2017-07-26 07:56:00,65.5,64.0,30.23,East,98,1.0,4.0,94,0.00,,,0.00,weatherlink.com 1.10,2017-07-26 11:56:00,
2017-07-26 08:12:00,66.1,64.0,30.23,ENE,63,2.0,5.0,92,0.00,,,0.00,weatherlink.com 1.10,2017-07-26 12:12:00,
2017-07-26 08:27:00,66.6,64.0,30.23,NE,44,1.0,4.0,91,0.00,,,0.00,weatherlink.com 1.10,2017-07-26 12:27:00,
2017-07-26 08:42:00,66.4,64.0,30.24,East,92,3.0,7.0,91,0.00,,,0.00,weatherlink.com 1.10,2017-07-26 12:42:00,
2017-07-26 08:57:00,66.8,64.0,30.24,NE,36,0.0,3.0,90,0.00,,,0.00,weatherlink.com 1.10,2017-07-26 12:57:00,
2017-07-26 09:12:00,67.0,64.0,30.24,WSW,252,2.0,3.0,89,0.00,,,0.00,weatherlink.com 1.10,2017-07-26 13:12:00,
2017-07-26 09:27:00,67.5,64.0,30.23,East,98,2.0,4.0,88,0.00,,,0.00,weatherlink.com 1.10,2017-07-26 13:27:00,
2017-07-26 09:42:00,67.9,64.0,30.23,East,90,5.0,7.0,87,0.00,,,0.00,weatherlink.com 1.10,2017-07-26 13:42:00,
2017-07-26 09:57:00,68.7,64.0,30.23,East,88,3.0,7.0,85,0.00,,,0.00,weatherlink.com 1.10,2017-07-26 13:57:00,
2017-07-26 10:12:00,69.6,64.0,30.23,NNW,333,1.0,6.0,81,0.00,,,0.00,weatherlink.com 1.10,2017-07-26 14:12:00,
2017-07-26 10:27:00,70.3,64.0,30.23,NNW,340,1.0,6.0,80,0.00,,,0.00,weatherlink.com 1.10,2017-07-26 14:27:00,
2017-07-26 10:42:00,72.0,64.0,30.23,North,351,1.0,5.0,76,0.00,,,0.00,weatherlink.com 1.10,2017-07-26 14:42:00,
2017-07-26 10:57:00,71.6,64.0,30.22,ENE,69,3.0,10.0,77,0.00,,,0.00,weatherlink.com 1.10,2017-07-26 14:57:00,
2017-07-26 11:12:00,71.8,64.0,30.22,ENE,75,3.0,10.0,75,0.00,,,0.00,weatherlink.com 1.10,2017-07-26 15:12:00,
2017-07-26 11:27:00,72.1,63.0,30.22,East,81,5.0,8.0,73,0.00,,,0.00,weatherlink.com 1.10,2017-07-26 15:27:00,
2017-07-26 11:42:00,72.2,64.0,30.21,ENE,74,3.0,9.0,75,0.00,,,0.00,weatherlink.com 1.10,2017-07-26 15:42:00,
2017-07-26 11:57:00,72.2,64.0,30.21,East,98,7.0,7.0,74,0.00,,,0.00,weatherlink.com 1.10,2017-07-26 15:57:00,
2017-07-26 12:12:00,71.9,64.0,30.21,East,88,3.0,8.0,76,0.00,,,0.00,weatherlink.com 1.10,2017-07-26 16:12:00,
2017-07-26 12:27:00,72.2,63.0,30.21,East,88,4.0,7.0,73,0.00,,,0.00,weatherlink.com 1.10,2017-07-26 16:27:00,
2017-07-26 12:42:00,72.6,64.0,30.21,East,89,2.0,7.0,74,0.00,,,0.00,weatherlink.com 1.10,2017-07-26 16:42:00,
2017-07-26 12:57:00,72.5,63.0,30.20,ENE,74,4.0,9.0,73,0.00,,,0.00,weatherlink.com 1.10,2017-07-26 16:57:00,
2017-07-26 13:12:00,72.9,66.0,30.20,ENE,61,2.0,6.0,78,0.00,,,0.00,weatherlink.com 1.10,2017-07-26 17:12:00,
2017-07-26 13:27:00,73.0,64.0,30.20,SE,142,1.0,7.0,74,0.00,,,0.00,weatherlink.com 1.10,2017-07-26 17:27:00,